QPF
0.00 0.00 0.00 0.00 0.00 0.00 0.00 0.00 0.00 0.00 0.00 0.00 0.00 0.01 0.02 0.01 0.00 0.00 0.00 0.00 0.00 0.00 0.00 0.00 0.00 0.00 0.00 0.00 0.00 0.00 0.00 0.00 0.00 0.00 0.00 0.00 0.00 0.00 0.00 0.00 0.00 0.00 0.00 0.00 0.00 0.00 0.00 0.00 0.00 0.00 0.00 0.00 0.00 0.00
0.00 0.00 0.00 0.00 0.00 0.00 0.01 0.01 0.00 0.00 0.00 0.00 0.00 0.01 0.02 0.02 0.00 0.00 0.00 0.00 0.00 0.00 0.00 0.00 0.00 0.00 0.00 0.00 0.00 0.00 0.00 0.00 0.00 0.00 0.00 0.00 0.00 0.00 0.00 0.00 0.00 0.00 0.00 0.00 0.00 0.00 0.00 0.00 0.00 0.00 0.00 0.00 0.00 0.00
0.00 0.00 0.00 0.00 0.00 0.00 0.01 0.01 0.00 0.00 0.00 0.00 0.00 0.01 0.02 0.03 0.01 0.01 0.00 0.00 0.00 0.00 0.00 0.00 0.00 0.00 0.00 0.00 0.00 0.00 0.00 0.00 0.00 0.00 0.00 0.00 0.00 0.00 0.00 0.00 0.00 0.00 0.00 0.00 0.00 0.00 0.00 0.00 0.00 0.00 0.00 0.00 0.00 0.00
0.00 0.00 0.00 0.00 0.00 0.01 0.01 0.00 0.00 0.00 0.00 0.00 0.01 0.02 0.01 0.02 0.01 0.01 0.00 0.00 0.00 0.00 0.00 0.00 0.00 0.00 0.00 0.00 0.00 0.00 0.00 0.00 0.00 0.01 0.01 0.00 0.00 0.00 0.00 0.00 0.00 0.00 0.00 0.00 0.00 0.00 0.00 0.00 0.00 0.00 0.00 0.00 0.00 0.00
0.00 0.00 0.01 0.01 0.01 0.02 0.01 0.01 0.00 0.00 0.00 0.00 0.01 0.00 0.01 0.03 0.01 0.00 0.00 0.00 0.00 0.00 0.00 0.00 0.00 0.00 0.00 0.00 0.00 0.00 0.00 0.01 0.02 0.03 0.01 0.00 0.00 0.00 0.00 0.00 0.00 0.00 0.00 0.00 0.00 0.00 0.00 0.00 0.00 0.00 0.00 0.00 0.00 0.00
0.00 0.00 0.00 0.00 0.01 0.01 0.01 0.00 0.00 0.00 0.00 0.02 0.01 0.00 0.02 0.01 0.00 0.00 0.00 0.00 0.00 0.00 0.00 0.00 0.00 0.00 0.00 0.00 0.00 0.00 0.01 0.03 0.01 0.01 0.00 0.00 0.00 0.00 0.00 0.00 0.00 0.00 0.00 0.00 0.00 0.00 0.00 0.00 0.00 0.00 0.00 0.00 0.00 0.00
0.00 0.00 0.01 0.01 0.01 0.01 0.00 0.00 0.00 0.00 0.02 0.01 0.01 0.02 0.00 0.00 0.00 0.00 0.00 0.00 0.00 0.00 0.01 0.00 0.00 0.00 0.00 0.00 0.01 0.01 0.02 0.02 0.03 0.01 0.01 0.00 0.00 0.00 0.00 0.00 0.00 0.00 0.00 0.00 0.00 0.00 0.00 0.00 0.00 0.00 0.00 0.00 0.00 0.00
0.00 0.00 0.01 0.02 0.01 0.01 0.00 0.00 0.00 0.01 0.01 0.01 0.01 0.00 0.00 0.01 0.00 0.00 0.00 0.00 0.00 0.00 0.00 0.00 0.00 0.00 0.01 0.01 0.01 0.02 0.02 0.03 0.02 0.01 0.00 0.00 0.00 0.01 0.00 0.00 0.00 0.00 0.00 0.00 0.00 0.00 0.00 0.00 0.00 0.00 0.00 0.00 0.00 0.00
0.00 0.00 0.01 0.02 0.01 0.00 0.00 0.01 0.01 0.01 0.01 0.01 0.00 0.00 0.00 0.00 0.00 0.00 0.00 0.00 0.00 0.00 0.00 0.00 0.00 0.00 0.01 0.01 0.01 0.02 0.02 0.01 0.01 0.01 0.00 0.00 0.00 0.00 0.00 0.00 0.00 0.00 0.00 0.00 0.00 0.00 0.00 0.00 0.00 0.00 0.00 0.00 0.00 0.00
0.00 0.00 0.01 0.00 0.01 0.01 0.01 0.01 0.00 0.01 0.00 0.00 0.00 0.00 0.00 0.00 0.00 0.01 0.01 0.00 0.00 0.00 0.00 0.00 0.00 0.00 0.00 0.01 0.00 0.00 0.00 0.00 0.00 0.00 0.00 0.00 0.00 0.00 0.00 0.00 0.00 0.00 0.00 0.00 0.00 0.00 0.00 0.00 0.00 0.00 0.00 0.00 0.00 0.00
0.00 0.00 0.00 0.01 0.01 0.01 0.01 0.00 0.00 0.00 0.00 0.00 0.00 0.00 0.00 0.00 0.00 0.00 0.00 0.00 0.00 0.00 0.00 0.00 0.00 0.00 0.00 0.00 0.00 0.00 0.00 0.00 0.00 0.00 0.01 0.00 0.00 0.00 0.00 0.00 0.00 0.00 0.00 0.00 0.00 0.00 0.00 0.00 0.00 0.00 0.00 0.00 0.00 0.00
0.00 0.00 0.00 0.00 0.00 0.00 0.00 0.00 0.00 0.00 0.00 0.00 0.00 0.00 0.00 0.00 0.00 0.00 0.00 0.00 0.00 0.00 0.00 0.00 0.00 0.00 0.00 0.00 0.00 0.00 0.00 0.00 0.00 0.00 0.00 0.00 0.00 0.00 0.00 0.00 0.00 0.00 0.00 0.00 0.00 0.00 0.00 0.00 0.00 0.00 0.00 0.00 0.00 0.00
0.00 0.00 0.00 0.00 0.01 0.00 0.00 0.01 0.00 0.00 0.00 0.00 0.00 0.00 0.00 0.00 0.00 0.00 0.00 0.00 0.00 0.00 0.00 0.00 0.00 0.00 0.00 0.00 0.00 0.00 0.00 0.00 0.00 0.00 0.00 0.00 0.00 0.00 0.00 0.00 0.00 0.00 0.00 0.00 0.00 0.00 0.00 0.00 0.00 0.00 0.00 0.00 0.00 0.00
0.00 0.00 0.01 0.01 0.01 0.01 0.00 0.01 0.00 0.00 0.00 0.00 0.00 0.00 0.00 0.00 0.00 0.00 0.00 0.00 0.00 0.00 0.00 0.00 0.00 0.00 0.00 0.00 0.00 0.00 0.00 0.00 0.00 0.00 0.00 0.00 0.00 0.00 0.00 0.00 0.00 0.00 0.00 0.00 0.00 0.00 0.00 0.00 0.00 0.00 0.00 0.00 0.00 0.00
0.00 0.01 0.01 0.02 0.02 0.01 0.01 0.00 0.00 0.00 0.00 0.00 0.00 0.00 0.00 0.00 0.00 0.00 0.00 0.00 0.00 0.00 0.00 0.00 0.00 0.00 0.00 0.00 0.00 0.00 0.00 0.00 0.00 0.00 0.00 0.00 0.00 0.00 0.00 0.00 0.00 0.00 0.00 0.00 0.00 0.00 0.00 0.00 0.00 0.00 0.00 0.00 0.00 0.00
0.01 0.02 0.01 0.02 0.02 0.02 0.01 0.00 0.00 0.00 0.00 0.00 0.00 0.00 0.00 0.00 0.00 0.00 0.00 0.00 0.00 0.00 0.00 0.00 0.00 0.00 0.00 0.00 0.00 0.00 0.00 0.00 0.00 0.00 0.00 0.00 0.00 0.00 0.00 0.00 0.00 0.00 0.00 0.00 0.00 0.00 0.00 0.00 0.00 0.00 0.00 0.00 0.00 0.00
0.01 0.00 0.01 0.02 0.02 0.01 0.00 0.00 0.00 0.00 0.00 0.00 0.00 0.00 0.00 0.00 0.00 0.00 0.00 0.00 0.00 0.00 0.00 0.00 0.00 0.00 0.00 0.00 0.00 0.00 0.00 0.00 0.00 0.00 0.00 0.00 0.00 0.00 0.00 0.00 0.00 0.00 0.00 0.00 0.00 0.00 0.00 0.00 0.00 0.00 0.00 0.00 0.00 0.00
0.00 0.00 0.01 0.01 0.00 0.00 0.00 0.00 0.00 0.00 0.00 0.00 0.00 0.00 0.00 0.00 0.00 0.00 0.00 0.00 0.00 0.00 0.00 0.00 0.00 0.00 0.00 0.00 0.00 0.00 0.00 0.00 0.00 0.00 0.00 0.00 0.00 0.00 0.00 0.00 0.00 0.00 0.00 0.00 0.00 0.00 0.00 0.00 0.00 0.00 0.00 0.00 0.00 0.00
0.00 0.01 0.00 0.00 0.00 0.00 0.00 0.00 0.00 0.00 0.00 0.00 0.00 0.00 0.00 0.00 0.00 0.00 0.00 0.00 0.00 0.00 0.00 0.00 0.00 0.00 0.00 0.00 0.00 0.00 0.00 0.00 0.00 0.00 0.00 0.00 0.00 0.00 0.00 0.00 0.00 0.00 0.00 0.00 0.00 0.00 0.00 0.00 0.00 0.00 0.00 0.00 0.00 0.00
0.01 0.00 0.00 0.00 0.00 0.00 0.00 0.00 0.00 0.00 0.00 0.00 0.00 0.00 0.00 0.00 0.00 0.00 0.00 0.00 0.00 0.00 0.00 0.00 0.00 0.00 0.00 0.00 0.00 0.00 0.00 0.00 0.00 0.00 0.00 0.00 0.00 0.00 0.00 0.00 0.00 0.00 0.00 0.00 0.00 0.00 0.00 0.00 0.00 0.00 0.00 0.00 0.00 0.00
0.00 0.00 0.00 0.00 0.00 0.00 0.00 0.00 0.00 0.00 0.00 0.00 0.00 0.00 0.00 0.00 0.00 0.00 0.00 0.00 0.00 0.00 0.00 0.00 0.00 0.00 0.00 0.00 0.00 0.00 0.00 0.00 0.00 0.00 0.00 0.00 0.00 0.00 0.00 0.00 0.00 0.00 0.00 0.00 0.00 0.00 0.00 0.00 0.00 0.00 0.00 0.00 0.00 0.00
0.00 0.00 0.00 0.00 0.00 0.00 0.00 0.00 0.00 0.00 0.00 0.00 0.00 0.00 0.00 0.00 0.00 0.00 0.00 0.00 0.00 0.00 0.00 0.00 0.00 0.00 0.00 0.00 0.00 0.00 0.00 0.00 0.00 0.00 0.00 0.00 0.00 0.00 0.00 0.00 0.00 0.00 0.00 0.00 0.00 0.00 0.00 0.00 0.00 0.00 0.00 0.00 0.00 0.00
0.00 0.00 0.00 0.00 0.00 0.00 0.00 0.00 0.00 0.00 0.00 0.00 0.00 0.00 0.00 0.00 0.00 0.00 0.00 0.00 0.00 0.00 0.00 0.00 0.00 0.00 0.00 0.00 0.00 0.00 0.00 0.00 0.00 0.00 0.00 0.00 0.00 0.00 0.00 0.00 0.00 0.00 0.00 0.00 0.00 0.00 0.00 0.00 0.00 0.00 0.00 0.00 0.00 0.00
0.00 0.00 0.00 0.00 0.00 0.00 0.00 0.00 0.00 0.00 0.00 0.00 0.00 0.00 0.00 0.00 0.00 0.00 0.00 0.00 0.00 0.00 0.00 0.00 0.00 0.00 0.00 0.00 0.00 0.00 0.00 0.00 0.00 0.00 0.00 0.00 0.00 0.00 0.00 0.00 0.00 0.00 0.00 0.00 0.00 0.00 0.00 0.00 0.00 0.00 0.00 0.00 0.00 0.00
0.00 0.00 0.00 0.00 0.00 0.00 0.00 0.00 0.00 0.00 0.00 0.00 0.00 0.00 0.00 0.00 0.00 0.00 0.00 0.00 0.00 0.00 0.00 0.00 0.00 0.00 0.00 0.00 0.00 0.00 0.00 0.00 0.00 0.00 0.00 0.00 0.00 0.00 0.00 0.00 0.00 0.00 0.00 0.00 0.00 0.00 0.00 0.00 0.00 0.00 0.00 0.00 0.00 0.00
0.00 0.00 0.00 0.00 0.00 0.00 0.00 0.00 0.00 0.00 0.00 0.00 0.00 0.00 0.00 0.00 0.00 0.00 0.00 0.00 0.00 0.00 0.00 0.00 0.00 0.00 0.00 0.00 0.00 0.00 0.00 0.00 0.00 0.00 0.00 0.00 0.00 0.00 0.00 0.00 0.00 0.00 0.00 0.00 0.00 0.00 0.00 0.00 0.00 0.00 0.00 0.00 0.00 0.00
0.00 0.00 0.00 0.00 0.00 0.00 0.00 0.00 0.00 0.00 0.00 0.00 0.00 0.00 0.00 0.00 0.00 0.00 0.00 0.00 0.00 0.00 0.00 0.00 0.00 0.00 0.00 0.00 0.00 0.00 0.00 0.00 0.00 0.00 0.00 0.00 0.00 0.00 0.00 0.00 0.00 0.00 0.00 0.00 0.00 0.00 0.00 0.00 0.00 0.00 0.00 0.00 0.00 0.00
0.00 0.00 0.00 0.00 0.00 0.00 0.00 0.00 0.00 0.00 0.00 0.00 0.00 0.00 0.00 0.00 0.00 0.00 0.00 0.00 0.00 0.00 0.00 0.00 0.00 0.00 0.00 0.00 0.00 0.00 0.00 0.00 0.00 0.00 0.00 0.00 0.00 0.00 0.00 0.00 0.00 0.00 0.00 0.00 0.00 0.00 0.00 0.00 0.00 0.00 0.00 0.00 0.00 0.00
0.00 0.00 0.00 0.00 0.00 0.00 0.00 0.00 0.00 0.00 0.00 0.00 0.00 0.00 0.00 0.00 0.00 0.00 0.00 0.00 0.00 0.00 0.00 0.00 0.00 0.00 0.00 0.00 0.00 0.00 0.00 0.00 0.00 0.00 0.00 0.00 0.00 0.00 0.00 0.00 0.00 0.00 0.00 0.00 0.00 0.00 0.00 0.00 0.00 0.00 0.00 0.00 0.00 0.00
0.00 0.00 0.00 0.00 0.00 0.00 0.00 0.00 0.00 0.00 0.00 0.00 0.00 0.00 0.00 0.00 0.00 0.00 0.00 0.00 0.00 0.00 0.00 0.00 0.00 0.00 0.00 0.00 0.00 0.00 0.00 0.00 0.00 0.00 0.00 0.00 0.00 0.00 0.00 0.00 0.00 0.00 0.00 0.00 0.00 0.00 0.00 0.00 0.00 0.00 0.00 0.00 0.00 0.00
0.00 0.00 0.00 0.00 0.00 0.00 0.00 0.00 0.00 0.00 0.00 0.00 0.00 0.00 0.00 0.00 0.00 0.00 0.00 0.00 0.00 0.00 0.00 0.00 0.00 0.00 0.00 0.00 0.00 0.00 0.00 0.00 0.00 0.00 0.00 0.00 0.00 0.00 0.00 0.00 0.00 0.00 0.00 0.00 0.00 0.00 0.00 0.00 0.00 0.00 0.00 0.00 0.00 0.00
0.00 0.00 0.00 0.00 0.00 0.00 0.00 0.00 0.00 0.00 0.00 0.00 0.00 0.00 0.00 0.00 0.00 0.00 0.00 0.00 0.00 0.00 0.00 0.00 0.00 0.00 0.00 0.00 0.00 0.00 0.00 0.00 0.00 0.00 0.00 0.00 0.00 0.00 0.00 0.00 0.00 0.00 0.00 0.00 0.00 0.00 0.00 0.00 0.00 0.00 0.00 0.00 0.00 0.00
0.00 0.00 0.00 0.00 0.00 0.00 0.00 0.00 0.00 0.00 0.00 0.00 0.00 0.00 0.00 0.00 0.00 0.00 0.00 0.00 0.00 0.00 0.00 0.00 0.00 0.00 0.00 0.00 0.00 0.00 0.00 0.00 0.00 0.00 0.00 0.00 0.00 0.00 0.00 0.00 0.00 0.00 0.00 0.00 0.00 0.00 0.00 0.00 0.00 0.00 0.00 0.00 0.00 0.00
MSLP
1018.28 1018.99 1019.67 1019.91 1020.14 1020.16 1020.31 1020.56 1020.75 1020.95 1020.72 1020.60 1020.26 1020.05 1019.80 1019.81 1019.62 1019.84 1019.78 1019.96 1019.96 1019.35 1017.88 1017.23 1016.78 1016.27 1015.73 1015.36 1014.72 1014.44 1014.15 1013.80 1013.58 1013.03 1012.73 1012.61 1012.39 1012.40 1012.45 1012.43 1012.76 1012.93 1013.33 1013.45 1013.61 1013.14 1011.59 1010.89 1011.20 1011.00 1010.93 1011.13 1011.36 1011.60
1017.89 1018.31 1018.73 1019.40 1019.67 1019.80 1019.79 1019.91 1020.20 1020.56 1020.45 1020.53 1020.28 1019.89 1019.62 1019.67 1019.36 1019.50 1019.76 1019.84 1019.96 1019.80 1018.23 1017.37 1016.74 1016.51 1016.40 1016.30 1016.55 1015.14 1014.03 1013.04 1012.41 1012.32 1012.42 1012.36 1012.26 1012.45 1012.09 1012.06 1012.66 1012.53 1011.95 1011.93 1012.01 1011.15 1010.66 1010.75 1010.61 1010.72 1011.09 1011.47 1011.66 1011.95
1017.49 1018.03 1018.48 1018.72 1019.18 1019.56 1019.58 1019.61 1019.92 1020.04 1020.24 1020.29 1020.08 1019.61 1019.36 1019.49 1019.19 1019.10 1019.37 1019.63 1019.83 1019.34 1017.77 1016.73 1015.82 1015.90 1015.90 1015.98 1016.28 1016.09 1014.39 1013.43 1012.83 1012.33 1012.20 1012.09 1011.86 1011.90 1011.71 1011.69 1011.65 1011.91 1012.03 1011.73 1011.55 1010.33 1010.59 1010.69 1010.81 1010.98 1011.45 1011.76 1011.95 1012.18
1017.12 1017.89 1018.07 1018.39 1018.74 1019.15 1019.41 1019.32 1019.49 1019.63 1019.89 1020.00 1019.73 1019.27 1019.10 1019.03 1018.96 1018.77 1019.11 1019.25 1019.44 1019.47 1018.35 1016.01 1015.60 1015.44 1014.97 1015.24 1015.58 1015.58 1014.60 1014.33 1013.98 1012.77 1012.01 1011.72 1011.67 1011.85 1011.64 1011.67 1011.45 1011.35 1011.65 1011.15 1010.89 1010.60 1010.76 1010.78 1011.03 1011.29 1011.65 1012.03 1012.18 1012.23
1016.68 1017.11 1017.34 1017.89 1018.22 1018.59 1019.01 1019.34 1019.33 1019.40 1019.61 1019.58 1019.41 1019.03 1018.78 1018.75 1018.58 1018.64 1018.65 1018.61 1018.59 1019.30 1018.12 1016.19 1015.21 1014.29 1014.14 1014.16 1014.67 1014.98 1015.14 1015.34 1015.28 1013.08 1012.13 1011.49 1011.62 1011.90 1012.03 1012.03 1011.14 1011.00 1010.56 1010.48 1009.99 1010.20 1010.29 1010.56 1011.34 1011.90 1012.15 1012.27 1012.35 1012.24
1016.39 1016.60 1017.27 1017.71 1018.09 1018.31 1018.68 1018.95 1019.16 1019.32 1019.43 1019.23 1018.96 1018.78 1018.57 1018.49 1018.39 1018.51 1018.51 1018.61 1018.59 1018.69 1018.43 1016.85 1015.28 1014.13 1013.86 1013.90 1013.93 1014.43 1014.91 1015.38 1015.00 1012.92 1011.68 1011.47 1011.24 1011.32 1011.37 1011.00 1009.94 1010.14 1010.49 1010.60 1010.47 1010.89 1011.16 1011.32 1011.75 1012.15 1012.44 1012.49 1012.36 1012.23
1016.48 1016.82 1017.25 1017.36 1017.93 1018.16 1018.42 1018.80 1019.02 1019.03 1019.05 1018.91 1018.67 1018.52 1018.22 1018.04 1018.15 1018.31 1018.21 1018.18 1018.39 1018.60 1018.31 1017.07 1015.28 1013.76 1013.29 1013.71 1014.14 1014.27 1014.50 1014.52 1014.17 1013.04 1011.32 1011.13 1011.26 1011.20 1011.15 1010.36 1009.52 1009.98 1010.54 1011.02 1011.30 1011.57 1011.75 1011.88 1012.08 1012.49 1012.53 1012.46 1012.39 1012.24
1015.89 1016.35 1016.72 1017.09 1017.34 1017.78 1018.04 1018.33 1018.50 1018.62 1018.62 1018.58 1018.34 1018.23 1017.83 1017.55 1017.86 1018.04 1017.86 1017.98 1018.25 1018.34 1018.24 1017.15 1014.99 1013.59 1012.77 1012.65 1012.84 1013.25 1013.47 1013.62 1012.26 1011.86 1011.20 1011.15 1011.54 1011.39 1010.64 1009.63 1009.84 1010.33 1010.91 1011.34 1011.69 1012.18 1012.40 1012.61 1012.74 1012.65 1012.64 1012.50 1012.37 1012.21
1015.31 1015.81 1016.20 1016.42 1017.02 1017.61 1017.88 1018.05 1018.23 1018.19 1018.17 1018.10 1018.03 1017.91 1017.84 1017.87 1017.95 1017.89 1017.77 1017.77 1018.07 1018.52 1017.62 1016.54 1014.83 1013.09 1012.17 1012.04 1011.98 1012.59 1012.38 1012.22 1011.63 1011.42 1011.08 1011.34 1010.95 1010.50 1009.55 1009.62 1009.90 1010.54 1011.17 1011.69 1012.31 1012.65 1012.81 1012.89 1012.89 1012.88 1012.74 1012.49 1012.39 1012.17
1014.82 1015.25 1015.48 1015.86 1016.64 1017.18 1017.48 1017.82 1018.08 1017.99 1017.93 1017.91 1018.01 1017.99 1017.81 1018.04 1017.98 1017.70 1017.73 1017.76 1017.78 1017.53 1017.37 1016.02 1014.67 1013.10 1011.82 1011.05 1011.39 1011.46 1011.40 1011.46 1011.35 1011.23 1011.25 1011.03 1010.33 1009.73 1010.03 1010.15 1010.24 1011.13 1011.74 1012.34 1012.65 1012.83 1013.06 1013.04 1013.04 1012.84 1012.66 1012.52 1012.27 1012.02
1014.44 1014.81 1015.01 1015.50 1016.13 1016.66 1017.19 1017.58 1017.85 1017.75 1017.98 1018.07 1018.14 1018.24 1018.20 1018.01 1017.94 1017.50 1017.06 1016.86 1016.40 1016.15 1015.74 1014.69 1013.74 1012.59 1011.34 1011.10 1011.20 1011.41 1011.38 1011.34 1011.20 1011.08 1011.04 1010.68 1010.11 1010.25 1010.90 1011.32 1011.80 1012.26 1012.65 1012.82 1013.02 1013.21 1013.35 1013.37 1013.21 1012.97 1012.61 1012.31 1012.03 1011.78
1013.74 1014.24 1014.69 1015.15 1015.69 1016.42 1016.92 1017.38 1017.55 1017.67 1017.96 1018.14 1018.25 1018.35 1018.34 1018.03 1017.56 1017.14 1016.20 1015.72 1015.38 1014.45 1013.91 1013.47 1012.88 1012.40 1011.56 1011.19 1011.17 1011.48 1011.41 1011.52 1011.13 1011.04 1011.18 1010.59 1010.44 1011.20 1011.67 1012.19 1012.67 1012.99 1013.14 1013.22 1013.35 1013.43 1013.47 1013.42 1013.23 1012.97 1012.58 1012.14 1011.77 1011.52
1013.20 1013.86 1014.36 1014.70 1015.44 1016.16 1016.73 1017.20 1017.39 1017.49 1017.91 1018.16 1018.31 1018.36 1018.13 1017.73 1017.12 1016.22 1015.44 1014.98 1014.56 1014.03 1013.84 1013.36 1012.77 1012.34 1011.77 1011.57 1011.54 1011.47 1011.40 1011.43 1011.33 1011.22 1010.72 1010.42 1011.17 1011.91 1012.46 1012.92 1013.30 1013.55 1013.60 1013.69 1013.74 1013.79 1013.73 1013.50 1013.21 1012.85 1012.53 1012.28 1011.90 1011.61
1012.50 1013.00 1013.71 1014.35 1015.14 1015.96 1016.52 1016.89 1017.21 1017.67 1017.93 1018.35 1018.57 1018.23 1017.65 1016.89 1016.17 1015.38 1015.09 1014.85 1014.64 1014.33 1013.98 1013.52 1012.91 1012.45 1012.10 1011.83 1011.69 1011.68 1011.58 1011.46 1011.29 1010.91 1010.33 1010.53 1011.42 1012.28 1012.92 1013.38 1013.66 1013.95 1014.09 1014.11 1014.15 1014.04 1013.92 1013.76 1013.46 1013.11 1012.79 1012.45 1012.15 1011.99
1011.74 1012.56 1013.47 1014.20 1014.93 1015.75 1016.33 1016.72 1017.31 1017.80 1018.21 1018.82 1018.94 1018.20 1017.13 1016.42 1015.99 1015.54 1015.34 1015.13 1014.81 1014.59 1014.13 1013.61 1013.20 1012.79 1012.30 1012.06 1011.81 1011.79 1011.56 1011.18 1010.68 1010.27 1010.45 1010.98 1011.88 1012.60 1013.20 1013.65 1013.95 1014.28 1014.46 1014.49 1014.45 1014.36 1014.23 1014.02 1013.73 1013.41 1013.15 1012.81 1012.58 1012.51
1011.58 1012.73 1013.35 1014.03 1014.81 1015.60 1016.18 1016.96 1017.66 1018.24 1018.86 1019.16 1018.90 1018.15 1017.18 1016.89 1016.12 1015.75 1015.44 1015.26 1015.06 1014.75 1014.38 1014.04 1013.44 1012.86 1012.38 1012.03 1011.88 1011.42 1011.33 1010.71 1010.29 1010.44 1010.73 1011.49 1012.33 1012.99 1013.48 1013.91 1014.18 1014.49 1014.67 1014.73 1014.74 1014.69 1014.55 1014.36 1014.13 1013.91 1013.62 1013.41 1013.21 1012.99
1011.64 1012.46 1012.83 1013.84 1014.78 1015.68 1016.34 1017.32 1018.05 1018.54 1019.04 1019.31 1018.60 1017.92 1017.50 1017.07 1016.47 1016.08 1015.75 1015.49 1015.33 1015.06 1014.66 1014.21 1013.66 1012.94 1012.52 1011.97 1011.69 1011.25 1010.94 1010.56 1010.48 1010.84 1011.33 1011.82 1012.44 1013.16 1013.74 1014.18 1014.55 1014.80 1014.98 1015.07 1015.09 1015.09 1015.00 1014.78 1014.51 1014.25 1014.03 1013.95 1013.72 1013.45
1011.67 1012.15 1012.88 1013.91 1015.01 1016.04 1017.36 1017.90 1018.74 1019.27 1019.24 1018.84 1018.71 1017.80 1017.45 1016.95 1016.51 1016.22 1016.02 1015.92 1015.79 1015.38 1015.16 1014.83 1014.43 1013.44 1012.42 1011.76 1011.21 1010.69 1010.73 1011.14 1011.37 1011.50 1011.72 1012.17 1012.65 1013.34 1013.91 1014.25 1014.71 1014.97 1015.14 1015.30 1015.40 1015.40 1015.35 1015.21 1015.01 1014.92 1014.76 1014.48 1014.02 1013.71
1011.15 1011.95 1013.18 1014.14 1014.80 1016.06 1017.62 1018.77 1019.07 1019.22 1018.96 1018.96 1018.54 1018.12 1017.58 1017.03 1016.67 1016.55 1016.46 1016.26 1016.11 1016.02 1015.77 1015.16 1014.43 1013.30 1012.13 1011.41 1011.16 1011.13 1011.36 1011.67 1011.96 1012.11 1012.35 1012.69 1013.03 1013.48 1013.93 1014.42 1014.80 1015.09 1015.28 1015.44 1015.53 1015.55 1015.58 1015.58 1015.56 1015.45 1015.23 1014.90 1014.62 1014.26
1011.65 1012.44 1013.54 1014.48 1014.82 1016.34 1018.05 1018.98 1019.38 1019.35 1019.22 1018.99 1018.89 1018.66 1018.19 1017.65 1017.37 1017.06 1016.79 1016.58 1016.51 1016.34 1015.84 1014.89 1013.32 1012.08 1011.70 1011.37 1011.42 1011.46 1011.46 1011.57 1012.23 1012.65 1012.74 1013.03 1013.38 1013.85 1014.17 1014.48 1014.78 1015.10 1015.39 1015.60 1015.68 1015.69 1015.67 1015.65 1015.71 1015.73 1015.62 1015.30 1015.08 1014.73
1012.46 1013.41 1014.27 1014.75 1015.92 1016.89 1018.00 1018.94 1019.31 1019.59 1019.32 1019.23 1019.33 1019.26 1018.71 1018.42 1018.00 1017.82 1017.46 1017.07 1016.74 1015.91 1014.79 1013.49 1012.61 1012.08 1011.94 1011.96 1011.95 1011.95 1011.89 1011.83 1011.98 1012.14 1012.18 1012.70 1013.35 1013.86 1014.31 1014.65 1014.90 1015.20 1015.31 1015.40 1015.42 1015.47 1015.58 1015.60 1015.73 1015.80 1015.60 1015.38 1015.30 1014.96
1012.74 1013.48 1014.59 1015.42 1016.40 1017.30 1018.04 1018.74 1019.12 1019.49 1019.62 1019.77 1019.71 1019.66 1019.52 1019.45 1019.05 1018.67 1018.33 1017.54 1016.29 1014.73 1013.97 1013.04 1012.73 1012.55 1012.37 1012.25 1012.18 1012.19 1012.10 1012.13 1012.22 1012.43 1012.48 1012.61 1013.21 1013.81 1014.20 1014.35 1014.89 1014.96 1015.12 1015.19 1015.33 1015.38 1015.49 1015.66 1015.78 1015.73 1015.61 1015.42 1015.19 1014.92
1012.82 1013.70 1014.80 1015.55 1016.55 1017.24 1018.83 1019.12 1019.41 1019.78 1019.69 1019.97 1020.17 1020.12 1020.21 1020.24 1019.76 1019.35 1018.63 1017.40 1015.58 1013.81 1013.28 1013.15 1012.88 1012.76 1012.64 1012.27 1012.25 1012.20 1012.14 1012.15 1012.26 1012.41 1012.52 1012.65 1012.85 1013.21 1013.60 1013.92 1014.26 1014.68 1014.95 1014.96 1015.15 1015.23 1015.37 1015.56 1015.61 1015.59 1015.55 1015.48 1015.34 1015.03
1012.93 1014.06 1014.93 1015.53 1016.30 1017.77 1018.71 1019.42 1019.68 1019.87 1019.99 1020.25 1020.56 1020.60 1020.64 1020.46 1020.04 1019.41 1018.48 1016.66 1014.41 1013.73 1013.58 1013.21 1013.15 1012.96 1012.82 1012.67 1012.40 1012.02 1012.07 1012.23 1012.24 1012.41 1012.53 1012.87 1013.16 1013.35 1013.49 1013.60 1013.92 1014.26 1014.46 1014.68 1014.92 1015.02 1015.20 1015.32 1015.37 1015.48 1015.52 1015.50 1015.36 1015.11
1013.56 1014.90 1015.26 1016.27 1016.92 1017.83 1018.82 1019.54 1019.90 1020.05 1020.36 1020.69 1020.93 1020.65 1020.71 1020.81 1020.02 1019.21 1017.97 1015.59 1014.31 1013.74 1013.22 1013.26 1013.13 1012.95 1012.69 1012.25 1011.95 1011.80 1011.91 1011.99 1012.10 1012.23 1012.43 1012.74 1012.96 1013.33 1013.50 1013.60 1013.76 1013.81 1014.13 1014.52 1014.56 1014.57 1014.64 1014.92 1015.09 1015.19 1015.27 1015.37 1015.30 1015.09
1013.90 1015.12 1015.58 1016.06 1017.10 1017.80 1018.60 1019.23 1019.64 1019.91 1020.19 1020.45 1020.46 1020.56 1020.69 1020.32 1019.58 1017.88 1016.00 1014.33 1013.69 1013.46 1013.06 1012.95 1012.98 1012.90 1012.56 1012.28 1011.94 1011.67 1011.57 1011.74 1012.00 1012.14 1012.08 1012.36 1012.43 1012.50 1012.75 1013.20 1013.37 1013.16 1013.21 1013.46 1013.73 1013.87 1014.08 1014.45 1014.72 1014.92 1015.14 1015.29 1015.17 1015.01
1014.71 1015.66 1016.04 1016.60 1017.09 1017.96 1018.75 1019.06 1019.38 1019.63 1019.75 1019.70 1019.45 1019.99 1019.98 1019.46 1017.74 1015.28 1013.61 1013.09 1013.02 1012.81 1012.85 1012.84 1012.84 1012.85 1012.45 1012.09 1011.95 1011.91 1011.82 1011.84 1011.88 1011.88 1011.67 1011.60 1011.65 1011.69 1011.91 1012.23 1012.38 1011.99 1012.28 1012.66 1012.95 1013.32 1013.69 1014.02 1014.34 1014.62 1014.76 1014.89 1014.94 1014.79
1014.98 1015.97 1016.62 1017.25 1017.71 1018.17 1018.66 1018.94 1018.97 1018.65 1018.01 1018.06 1018.51 1018.75 1018.07 1016.45 1014.67 1013.14 1012.50 1012.13 1012.18 1012.29 1012.43 1012.30 1012.14 1012.11 1012.08 1011.96 1011.96 1011.93 1012.03 1012.23 1012.41 1012.33 1011.97 1011.70 1011.54 1011.51 1011.67 1011.80 1011.88 1011.78 1012.00 1012.37 1012.79 1013.20 1013.54 1013.79 1014.01 1014.14 1014.25 1014.29 1014.31 1014.22
1015.51 1016.04 1016.74 1017.74 1018.19 1018.51 1018.20 1018.07 1017.57 1016.70 1015.92 1016.57 1016.77 1016.12 1015.39 1014.29 1013.05 1012.42 1011.90 1011.97 1012.12 1012.26 1011.97 1011.56 1011.09 1011.32 1011.44 1011.43 1011.46 1011.60 1011.80 1012.04 1012.33 1012.07 1011.60 1011.08 1010.98 1010.78 1010.82 1011.16 1011.49 1011.80 1012.14 1012.47 1012.54 1012.87 1013.40 1013.61 1013.70 1013.53 1013.52 1013.68 1013.65 1013.72
1015.61 1015.86 1016.85 1017.62 1018.28 1018.03 1016.83 1016.55 1016.34 1015.73 1015.64 1015.52 1015.48 1015.00 1014.30 1013.25 1011.92 1011.24 1011.53 1011.68 1011.62 1010.93 1010.09 1009.86 1009.98 1010.50 1010.47 1010.58 1010.43 1010.61 1010.81 1010.92 1010.84 1010.62 1010.30 1010.14 1010.02 1009.98 1010.34 1010.86 1011.23 1011.71 1012.19 1012.54 1012.72 1013.01 1013.05 1013.12 1013.15 1013.40 1013.14 1013.35 1013.44 1013.38
1015.55 1016.27 1017.07 1017.41 1017.50 1016.81 1016.57 1016.73 1016.62 1016.21 1016.03 1015.95 1015.76 1015.57 1014.12 1012.81 1011.48 1010.45 1010.16 1009.63 1009.32 1009.04 1009.05 1009.16 1009.19 1009.26 1009.51 1009.49 1009.66 1009.62 1009.38 1009.25 1009.20 1009.31 1009.39 1009.72 1009.99 1010.26 1010.67 1010.97 1011.23 1011.65 1012.05 1012.33 1012.50 1012.69 1012.83 1012.98 1013.05 1013.13 1013.09 1013.02 1013.00 1012.82
1015.89 1016.18 1016.75 1017.35 1017.04 1016.77 1017.24 1017.21 1016.71 1016.34 1016.03 1016.09 1015.52 1015.27 1014.63 1014.08 1012.54 1009.40 1007.80 1008.12 1008.31 1008.61 1008.02 1008.15 1008.33 1007.94 1008.12 1008.27 1008.26 1008.33 1008.41 1008.60 1008.64 1008.90 1009.13 1009.31 1009.82 1010.23 1010.57 1010.84 1011.12 1011.40 1011.63 1011.80 1011.94 1012.12 1012.33 1012.54 1012.55 1012.52 1012.50 1012.44 1012.46 1012.44
1016.19 1016.53 1016.93 1016.86 1016.69 1016.43 1016.64 1016.76 1016.50 1016.09 1016.09 1015.53 1014.73 1014.45 1014.12 1013.82 1012.49 1009.20 1008.24 1008.43 1008.39 1008.16 1008.09 1007.99 1007.93 1008.05 1008.22 1008.33 1008.44 1008.41 1008.41 1008.77 1008.90 1008.96 1009.04 1009.25 1009.49 1009.83 1010.14 1010.36 1010.63 1010.84 1011.07 1011.11 1011.24 1011.42 1011.59 1011.71 1011.78 1011.77 1011.82 1011.86 1011.82 1011.72
Thickness
5494 5483 5473 5467 5460 5452 5441 5430 5424 5419 5418 5413 5412 5410 5411 5409 5410 5408 5410 5411 5416 5424 5440 5447 5453 5461 5468 5473 5489 5486 5492 5491 5491 5502 5504 5503 5511 5513 5513 5517 5510 5512 5510 5506 5507 5504 5515 5540 5536 5539 5544 5542 5544 5543
5488 5479 5471 5461 5453 5443 5435 5429 5423 5416 5412 5406 5404 5404 5404 5402 5403 5402 5402 5403 5406 5412 5430 5438 5446 5449 5450 5452 5447 5464 5484 5493 5503 5503 5498 5501 5506 5502 5514 5513 5508 5509 5521 5522 5523 5531 5538 5536 5539 5541 5536 5536 5537 5536
5483 5472 5464 5458 5446 5434 5428 5424 5419 5414 5407 5402 5400 5400 5399 5396 5397 5398 5397 5397 5399 5407 5424 5434 5443 5444 5445 5445 5444 5445 5467 5481 5487 5492 5495 5499 5506 5507 5510 5514 5514 5511 5511 5517 5518 5535 5531 5531 5533 5531 5529 5529 5530 5530
5478 5465 5459 5450 5439 5429 5422 5420 5415 5411 5405 5398 5396 5396 5393 5392 5392 5393 5391 5393 5396 5398 5410 5434 5437 5437 5442 5439 5436 5439 5449 5452 5458 5478 5492 5496 5501 5495 5507 5505 5510 5515 5506 5516 5519 5524 5523 5525 5525 5526 5524 5521 5523 5525
5474 5465 5457 5445 5434 5424 5414 5410 5408 5407 5402 5398 5393 5391 5389 5387 5388 5387 5388 5392 5395 5395 5410 5426 5433 5437 5436 5433 5426 5422 5422 5422 5425 5462 5477 5491 5489 5489 5484 5487 5504 5505 5514 5516 5524 5524 5527 5526 5518 5512 5512 5513 5514 5518
5469 5463 5450 5440 5429 5419 5410 5406 5402 5401 5398 5395 5393 5388 5385 5383 5382 5383 5388 5389 5392 5394 5398 5409 5422 5427 5424 5413 5405 5395 5398 5401 5414 5450 5472 5480 5486 5494 5492 5498 5512 5508 5502 5504 5515 5507 5506 5509 5506 5502 5501 5504 5508 5512
5461 5454 5444 5437 5422 5412 5405 5401 5399 5398 5395 5393 5390 5386 5383 5382 5381 5381 5388 5389 5389 5389 5394 5399 5414 5427 5420 5396 5379 5377 5386 5403 5420 5439 5466 5474 5481 5486 5485 5498 5510 5503 5498 5494 5493 5492 5497 5495 5501 5493 5496 5498 5501 5505
5459 5451 5443 5431 5422 5410 5406 5402 5399 5397 5394 5392 5390 5384 5383 5383 5382 5382 5385 5386 5387 5389 5388 5397 5416 5424 5427 5420 5408 5402 5410 5416 5439 5447 5461 5468 5468 5478 5485 5500 5499 5493 5488 5485 5483 5478 5480 5481 5480 5485 5487 5491 5495 5501
5455 5449 5439 5432 5421 5409 5404 5400 5396 5395 5394 5392 5389 5385 5382 5380 5380 5381 5383 5386 5386 5387 5395 5405 5420 5438 5432 5434 5434 5424 5431 5433 5443 5456 5464 5463 5473 5481 5494 5498 5496 5488 5484 5481 5470 5467 5469 5471 5474 5476 5478 5485 5486 5491
5450 5443 5438 5429 5417 5408 5402 5398 5393 5392 5392 5391 5388 5385 5383 5378 5376 5380 5383 5387 5388 5391 5391 5402 5413 5429 5439 5452 5444 5450 5448 5451 5452 5459 5458 5464 5478 5490 5483 5485 5487 5475 5469 5462 5464 5466 5462 5463 5464 5470 5474 5477 5482 5487
5443 5438 5433 5424 5414 5406 5398 5394 5390 5389 5387 5387 5384 5381 5377 5375 5374 5381 5391 5395 5401 5407 5405 5412 5420 5435 5444 5455 5448 5446 5447 5450 5456 5462 5466 5472 5482 5477 5465 5462 5457 5452 5451 5453 5454 5454 5453 5454 5456 5460 5466 5471 5475 5480
5438 5433 5426 5417 5410 5400 5391 5388 5387 5386 5382 5381 5379 5375 5374 5374 5379 5386 5398 5405 5408 5425 5427 5430 5434 5435 5444 5445 5451 5446 5446 5444 5463 5456 5461 5475 5477 5455 5455 5450 5445 5444 5444 5445 5445 5444 5444 5446 5449 5453 5459 5465 5471 5475
5432 5424 5418 5412 5400 5391 5383 5380 5379 5380 5377 5376 5374 5372 5376 5377 5384 5393 5406 5414 5416 5421 5419 5423 5431 5433 5441 5442 5442 5445 5455 5458 5449 5458 5470 5480 5451 5445 5442 5439 5436 5434 5435 5436 5437 5435 5436 5439 5444 5449 5452 5456 5462 5466
5426 5420 5412 5403 5390 5378 5374 5374 5372 5371 5371 5370 5371 5376 5380 5389 5392 5401 5405 5408 5406 5408 5413 5418 5426 5432 5434 5438 5439 5441 5446 5446 5455 5462 5471 5469 5448 5440 5435 5432 5431 5429 5429 5429 5430 5431 5433 5435 5438 5443 5446 5450 5454 5456
5420 5411 5402 5390 5380 5370 5368 5367 5364 5364 5363 5360 5361 5368 5380 5384 5383 5387 5387 5393 5397 5400 5408 5416 5418 5425 5426 5433 5435 5437 5446 5454 5463 5475 5468 5448 5439 5433 5430 5427 5426 5425 5424 5425 5425 5427 5428 5429 5432 5436 5439 5442 5445 5447
5408 5398 5391 5380 5371 5365 5363 5360 5356 5353 5348 5348 5350 5353 5365 5368 5379 5382 5383 5386 5389 5395 5399 5403 5412 5423 5427 5431 5434 5444 5449 5460 5468 5454 5448 5436 5434 5431 5427 5423 5422 5420 5420 5420 5420 5420 5421 5423 5425 5427 5431 5432 5434 5436
5393 5387 5381 5371 5364 5359 5356 5351 5347 5342 5345 5340 5344 5351 5354 5356 5364 5370 5376 5380 5378 5386 5397 5399 5412 5421 5415 5428 5431 5441 5446 5453 5448 5439 5433 5435 5430 5427 5422 5419 5417 5416 5415 5414 5413 5413 5413 5414 5418 5422 5423 5422 5424 5427
5378 5373 5365 5361 5356 5350 5342 5339 5333 5333 5334 5339 5341 5350 5351 5357 5360 5365 5365 5365 5369 5376 5378 5387 5378 5397 5416 5426 5436 5435 5431 5419 5418 5426 5429 5427 5422 5419 5416 5416 5411 5410 5409 5407 5405 5406 5406 5408 5411 5412 5412 5414 5418 5421
5366 5361 5355 5350 5349 5343 5337 5328 5327 5331 5333 5329 5333 5338 5346 5352 5353 5353 5353 5355 5356 5356 5358 5368 5376 5390 5405 5410 5415 5414 5410 5410 5417 5414 5415 5415 5415 5412 5409 5404 5402 5400 5399 5399 5400 5401 5401 5400 5400 5400 5401 5404 5406 5409
5351 5347 5344 5340 5341 5333 5324 5318 5317 5320 5332 5331 5326 5331 5335 5342 5340 5341 5345 5348 5347 5350 5354 5361 5377 5394 5397 5401 5397 5401 5404 5403 5398 5400 5402 5401 5401 5396 5397 5397 5398 5394 5392 5389 5389 5392 5392 5392 5391 5389 5390 5393 5394 5396
5337 5333 5331 5332 5325 5321 5315 5309 5312 5311 5320 5324 5317 5316 5329 5322 5329 5329 5331 5334 5341 5345 5355 5368 5376 5382 5376 5378 5382 5385 5389 5391 5394 5399 5404 5399 5390 5388 5385 5383 5381 5382 5385 5386 5387 5387 5384 5385 5382 5380 5383 5386 5385 5388
5329 5327 5323 5319 5316 5313 5317 5313 5312 5312 5314 5311 5313 5307 5317 5321 5319 5317 5314 5327 5340 5348 5355 5363 5364 5365 5369 5369 5370 5371 5376 5377 5377 5378 5381 5381 5377 5373 5373 5375 5371 5375 5376 5377 5377 5378 5376 5373 5372 5373 5375 5377 5379 5381
5324 5321 5316 5317 5316 5320 5307 5301 5304 5294 5311 5307 5296 5313 5313 5306 5303 5306 5313 5316 5333 5347 5351 5351 5351 5347 5352 5356 5355 5360 5362 5365 5367 5368 5369 5371 5370 5368 5367 5367 5366 5365 5365 5367 5364 5365 5365 5365 5366 5366 5367 5367 5368 5372
5318 5317 5317 5322 5323 5313 5300 5292 5296 5300 5299 5301 5298 5302 5300 5299 5294 5305 5311 5322 5340 5340 5340 5342 5341 5344 5344 5343 5350 5357 5357 5355 5358 5356 5359 5358 5358 5358 5357 5358 5358 5357 5359 5358 5357 5357 5356 5357 5358 5357 5357 5357 5359 5361
5317 5307 5312 5297 5300 5301 5293 5288 5285 5290 5297 5268 5285 5298 5292 5276 5301 5296 5308 5333 5334 5339 5341 5334 5334 5337 5343 5348 5348 5350 5347 5349 5352 5354 5352 5351 5351 5346 5347 5348 5351 5353 5351 5349 5350 5351 5352 5350 5349 5349 5349 5349 5348 5349
5305 5296 5310 5304 5294 5299 5294 5290 5284 5282 5278 5258 5275 5272 5264 5282 5282 5311 5321 5335 5335 5336 5338 5337 5335 5335 5337 5338 5343 5345 5348 5344 5344 5348 5350 5345 5347 5350 5350 5347 5347 5351 5349 5348 5347 5348 5347 5344 5342 5339 5339 5338 5340 5341
5290 5286 5295 5289 5286 5276 5273 5273 5272 5270 5264 5275 5280 5268 5271 5281 5299 5322 5330 5331 5336 5334 5330 5330 5329 5330 5335 5336 5334 5334 5334 5335 5338 5341 5341 5342 5344 5346 5346 5345 5346 5351 5347 5344 5343 5341 5339 5337 5334 5331 5330 5328 5327 5328
5293 5278 5278 5270 5266 5260 5266 5261 5262 5267 5279 5278 5276 5272 5281 5297 5325 5329 5330 5332 5329 5326 5324 5324 5325 5326 5325 5326 5327 5326 5324 5322 5321 5324 5328 5331 5332 5334 5334 5336 5337 5339 5337 5335 5332 5329 5327 5326 5324 5322 5320 5319 5318 5319
5280 5273 5264 5250 5239 5245 5258 5271 5274 5281 5289 5281 5285 5290 5296 5303 5310 5315 5321 5318 5313 5316 5321 5327 5330 5321 5320 5319 5317 5316 5317 5316 5317 5320 5326 5337 5335 5337 5332 5331 5329 5327 5325 5322 5322 5319 5314 5312 5311 5311 5310 5309 5308 5307
5262 5258 5251 5243 5245 5256 5272 5268 5270 5265 5269 5276 5277 5282 5288 5296 5305 5307 5308 5307 5310 5320 5328 5332 5332 5320 5328 5323 5327 5319 5314 5315 5319 5327 5331 5335 5335 5329 5323 5321 5319 5316 5312 5309 5307 5304 5304 5302 5300 5297 5297 5295 5294 5294
5245 5242 5237 5234 5245 5253 5246 5237 5239 5249 5245 5245 5242 5260 5292 5289 5295 5303 5310 5318 5321 5323 5317 5321 5322 5319 5322 5321 5320 5323 5327 5321 5321 5321 5321 5317 5315 5314 5311 5309 5307 5304 5300 5298 5295 5292 5290 5287 5285 5283 5281 5280 5278 5281
5242 5242 5240 5229 5237 5223 5215 5219 5218 5226 5224 5224 5244 5230 5239 5246 5265 5310 5317 5313 5307 5306 5319 5320 5317 5328 5318 5320 5319 5319 5325 5316 5315 5314 5312 5312 5307 5304 5301 5298 5296 5293 5291 5288 5285 5281 5277 5274 5272 5270 5268 5264 5261 5258
5209 5212 5195 5204 5215 5219 5209 5208 5209 5210 5203 5208 5222 5218 5223 5237 5261 5291 5288 5280 5288 5295 5295 5297 5300 5302 5302 5303 5305 5307 5309 5305 5304 5305 5305 5302 5300 5296 5292 5290 5287 5284 5281 5278 5274 5270 5266 5263 5259 5254 5249 5245 5242 5240